Weather History for Palm Springs, CA

Change the Weather History Date:

Friday, April 5, 2013

  Actual Average Record
Temperature  
Mean Temperature 73 °F 69 °F  
Max Temperature 85 °F 82 °F 104 °F (1989)
Min Temperature 60 °F 55 °F 38 °F (1955)
Degree Days  
Heating Degree Days 0 1  
Month to date heating degree days 0 5  
Since 1 July heating degree days 760 856  
Cooling Degree Days 8 5  
Month to date cooling degree days 44 24  
Year to date cooling degree days 276 144  
Growing Degree Days 22 (Base 50)    
Moisture  
Dew Point 43 °F    
Average Humidity 36    
Maximum Humidity 51    
Minimum Humidity 20    
Precipitation  
Precipitation 0.00 in 0.01 in 1.36 in (1926)
Month to date precipitation 0.00 0.02  
Year to date precipitation 0.97 2.66  
Since 1 July precipitation 2.19 5.46  
Snow  
Snow 0.00 in - - ()
Month to date snowfall 0.0  
Year to date snowfall 0.0  
Since 1 July snowfall 0.0  
Snow Depth 0.00 in    
Sea Level Pressure  
Sea Level Pressure 29.87 in    
Wind  
Wind Speed 7 mph (NW)    
Max Wind Speed 23 mph    
Max Gust Speed 29 mph    
Visibility 10 miles    
Events      
T = Trace of Precipitation, MM = Missing Value Source: NWS Daily Summary

Daily Weather History Graph

Daily Weather History Graph

Search for Another Location

Airport:

Trip Planner

Search our weather history database for the weather conditions in past years. The results will help you decide how hot, cold, wet, or windy it might be!

Date:

Astronomy

Apr. 05, 2013 Rise Set
Actual Time 6:27 AM PDT 7:09 PM PDT
Civil Twilight 6:02 AM PDT 7:35 PM PDT
Nautical Twilight 5:32 AM PDT 8:05 PM PDT
Astronomical Twilight 5:02 AM PDT 8:35 PM PDT
Moon 3:24 AM PDT (4/5) 2:50 PM PDT (4/5)
Length of Visible Light 13h 32m
Length of Day
12h 42m
Waning Crescent, 22% of the Moon is Illuminated
Apr 5
Waning Crescent
Apr 10
New
Apr 18
First Quarter
Apr 25
Full
May 2
Last Quarter

Hourly Weather History & Observations

Time (PDT) Temp. Dew Point Humidity Pressure Visibility Wind Dir Wind Speed Gust Speed Precip Events Conditions
12:53 AM 70.0 °F 36.0 °F 29% 29.90 in 10.0 mi South 3.5 mph - N/A   Clear
1:53 AM 68.0 °F 36.0 °F 31% 29.89 in 10.0 mi SSE 4.6 mph - N/A   Clear
2:53 AM 66.9 °F 37.9 °F 34% 29.88 in 10.0 mi Calm Calm - N/A   Clear
3:53 AM 66.0 °F 39.9 °F 38% 29.88 in 10.0 mi Calm Calm - N/A   Clear
4:53 AM 64.0 °F 43.0 °F 46% 29.88 in 10.0 mi SW 5.8 mph - N/A   Clear
5:53 AM 61.0 °F 43.0 °F 52% 29.88 in 10.0 mi SSW 4.6 mph - N/A   Clear
6:53 AM 64.0 °F 44.1 °F 48% 29.89 in 10.0 mi Calm Calm - N/A   Clear
7:53 AM 69.1 °F 43.0 °F 39% 29.92 in 10.0 mi NNE 3.5 mph - N/A   Clear
8:53 AM 70.0 °F 46.0 °F 42% 29.94 in 10.0 mi West 3.5 mph - N/A   Clear
9:53 AM 73.9 °F 45.0 °F 35% 29.94 in 10.0 mi NW 9.2 mph - N/A   Clear
10:53 AM 77.0 °F 39.9 °F 26% 29.94 in 10.0 mi Calm Calm - N/A   Clear
11:53 AM 79.0 °F 37.9 °F 23% 29.93 in 10.0 mi East 5.8 mph - N/A   Clear
12:53 PM 82.9 °F 37.9 °F 20% 29.89 in 10.0 mi Variable 5.8 mph - N/A   Clear
1:53 PM 82.9 °F 41.0 °F 23% 29.87 in 10.0 mi NNW 12.7 mph 24.2 mph N/A   Clear
2:53 PM 82.9 °F 44.1 °F 25% 29.85 in 10.0 mi NW 15.0 mph 21.9 mph N/A   Scattered Clouds
3:53 PM 82.9 °F 44.1 °F 25% 29.83 in 10.0 mi NW 23.0 mph 27.6 mph N/A   Mostly Cloudy
4:53 PM 82.9 °F 44.1 °F 25% 29.82 in 10.0 mi NW 20.7 mph 27.6 mph N/A   Scattered Clouds
5:53 PM 81.0 °F 44.1 °F 27% 29.82 in 10.0 mi NW 17.3 mph 28.8 mph N/A   Clear
6:53 PM 77.0 °F 46.0 °F 33% 29.81 in 10.0 mi NW 19.6 mph 27.6 mph N/A   Clear
7:53 PM 73.9 °F 48.0 °F 40% 29.82 in 10.0 mi NW 25.3 mph - N/A   Clear
8:53 PM 73.0 °F 48.0 °F 41% 29.84 in 10.0 mi NW 24.2 mph 28.8 mph N/A   Clear
9:53 PM 72.0 °F 48.9 °F 44% 29.86 in 10.0 mi NW 18.4 mph 31.1 mph N/A   Clear
10:53 PM 72.0 °F 46.9 °F 41% 29.85 in 10.0 mi NW 12.7 mph 17.3 mph N/A   Clear
11:53 PM 70.0 °F 48.9 °F 47% 29.85 in 10.0 mi WNW 11.5 mph 25.3 mph N/A   Clear